EHI
47 45 42 41 40 39 34 29 27 26 24 25 28 29 25 23 23 22 19 18 17 18 20 20 20 21 22 21 19 19 18 15 10 9 11 13 14 12 11 11 9 9 12
43 41 39 40 41 38 33 29 26 24 23 26 29 28 25 22 23 24 22 19 19 20 21 21 20 19 21 21 18 16 15 12 10 9 11 13 14 13 13 11 7 6 8
38 37 37 38 40 36 31 29 26 23 22 24 26 25 23 22 23 25 24 22 21 21 22 21 20 19 19 19 17 15 12 10 9 10 11 13 13 13 13 11 8 6 5
38 37 37 37 36 33 30 29 27 23 21 22 24 23 23 23 24 25 24 22 23 22 21 21 21 19 18 17 16 15 14 12 11 10 11 11 12 13 13 11 10 8 7
42 40 39 37 34 32 31 29 28 26 23 23 24 24 24 23 22 22 21 21 21 21 19 20 19 18 16 14 13 12 13 13 11 9 9 10 12 14 14 13 11 9 8
45 43 41 37 33 31 32 32 32 30 26 25 25 26 24 19 16 15 16 18 18 17 17 16 15 12 11 10 7 6 7 8 8 7 8 9 11 13 15 14 11 7 6
45 43 39 35 32 31 31 33 35 33 30 28 27 27 22 15 10 9 12 15 16 15 14 11 10 9 10 9 7 4 4 4 4 5 7 8 9 11 14 14 11 7 6
43 40 37 35 33 32 32 33 33 31 30 30 29 27 21 13 7 6 8 12 16 15 12 8 8 10 11 11 11 10 9 6 2 2 4 5 5 7 10 12 10 8 7
41 39 35 33 33 32 32 31 30 28 28 28 28 26 20 12 6 3 4 10 15 15 12 8 7 9 9 8 10 12 13 10 4 1 1 2 2 2 4 7 8 6 5
38 37 34 31 30 29 28 27 26 25 25 24 25 25 20 12 6 1 3 8 13 14 12 8 5 4 3 3 6 9 11 10 6 2 1 1 2 2 2 4 4 3 3
36 34 32 30 28 25 24 24 23 22 21 21 23 23 19 12 6 1 2 6 10 12 11 9 5 1 0 0 2 5 6 6 5 3 3 4 6 6 5 4 3 2 3
34 32 29 28 25 23 23 23 21 20 20 21 22 21 18 13 7 2 1 2 5 8 9 7 4 1 0 0 0 1 1 2 2 3 4 6 7 8 8 7 4 4 5
30 28 27 26 23 20 21 20 18 17 18 19 20 20 18 14 10 5 1 0 1 3 5 3 1 0 0 0 0 0 0 0 1 2 3 5 7 8 8 8 6 5 6
25 23 22 21 19 17 17 18 16 14 15 16 17 18 18 15 12 9 4 2 1 1 1 1 0 0 0 0 0 0 0 0 1 1 2 5 8 8 8 7 6 5 4
21 19 16 14 13 13 14 13 11 10 10 11 12 13 13 11 9 8 6 4 2 1 0 0 0 0 0 0 0 0 0 1 1 2 4 6 8 8 7 6 4 3 2
19 17 13 11 11 11 10 6 4 4 4 4 5 6 6 4 4 4 3 2 1 0 0 1 1 1 0 0 0 1 1 3 4 5 6 6 7 7 7 5 4 3 3
18 15 13 12 11 9 7 4 2 1 1 0 0 1 1 1 1 1 0 0 0 0 1 3 3 2 1 1 1 1 2 3 4 5 6 6 6 5 5 5 4 3 3
16 14 13 13 10 8 7 5 3 2 2 1 0 0 0 0 0 0 0 0 0 0 1 2 3 2 2 3 3 2 2 2 3 3 3 4 5 4 4 5 5 3 2
13 12 12 11 9 7 6 6 4 3 3 2 1 0 0 0 0 0 0 0 0 0 0 1 1 1 2 4 4 3 2 2 2 1 1 2 3 3 3 4 5 3 2
10 9 9 9 8 7 6 5 4 3 3 2 1 1 1 0 0 0 0 0 0 0 0 0 0 0 2 3 3 2 2 2 2 1 0 1 1 2 3 3 3 2 2
7 6 6 7 8 8 7 5 3 3 3 3 2 1 1 1 2 2 1 1 0 0 1 0 0 0 1 1 1 1 0 1 1 0 0 0 1 2 2 1 1 1 1
6 6 6 7 6 7 6 4 2 3 4 5 4 2 0 1 2 2 2 1 0 0 0 0 0 0 0 0 0 0 0 0 0 0 0 0 1 1 1 0 0 0 0
5 4 5 7 5 4 4 4 3 3 4 5 5 3 1 0 1 1 1 1 0 0 0 0 0 0 0 0 0 0 1 1 1 1 1 0 0 0 0 0 0 0 0
3 3 4 5 4 3 3 4 3 2 2 3 4 2 1 0 0 0 0 0 0 0 0 0 0 0 0 0 1 1 2 2 2 2 1 0 0 0 0 0 0 0 0
2 3 3 4 3 3 3 4 3 1 0 1 1 1 0 0 0 0 0 0 0 1 1 1 1 1 1 1 1 2 2 1 1 1 0 0 0 0 0 0 0 1 1
1 2 3 3 3 3 3 3 2 1 0 0 0 0 0 0 0 0 1 1 1 2 2 2 2 2 2 1 1 1 1 0 0 0 0 0 0 0 0 0 1 2 2
Wind_Speed
5 4 3 3 3 2 2 1 1 0 0 1 2 2 2 2 2 2 3 2 3 3 3 2 2 2 2 3 2 2 2 2 3 3 1 1 2 2 2 2 3 4 4
4 4 3 3 3 2 2 2 1 1 1 1 2 2 3 2 2 2 3 3 3 3 3 2 3 2 2 2 3 3 2 2 2 3 3 2 3 3 3 3 4 4 3
5 4 3 3 3 2 2 2 2 2 2 2 2 3 3 2 3 3 3 3 3 3 2 2 3 2 3 3 3 3 2 3 2 3 3 2 2 2 2 3 4 3 4
4 4 3 3 2 2 2 2 2 2 3 2 2 3 3 3 3 3 3 4 3 3 3 3 3 3 3 4 3 2 2 3 3 3 3 2 2 2 1 2 3 2 3
3 3 3 2 2 2 1 2 2 2 2 1 2 3 4 3 2 2 3 4 3 3 3 3 3 3 3 3 3 2 2 2 3 3 3 2 2 2 2 2 3 2 3
3 3 2 2 1 1 1 2 2 2 2 2 2 3 3 4 3 2 3 3 3 3 3 3 4 3 2 2 3 3 3 3 3 3 3 3 3 2 2 3 3 3 3
3 2 2 2 2 2 2 2 2 2 2 2 3 3 2 2 2 2 3 3 3 3 3 3 4 3 2 2 3 4 4 6 6 4 4 4 4 3 3 4 3 4 5
3 3 2 2 2 1 2 2 2 2 2 3 3 3 2 2 1 2 4 3 3 3 3 3 3 2 3 3 4 3 3 4 5 5 4 5 5 3 4 4 5 5 5
2 1 1 1 1 2 2 2 2 2 3 3 3 2 2 1 1 1 2 2 2 3 2 3 3 2 3 4 3 3 3 3 5 6 6 7 7 8 6 4 4 4 5
1 1 1 1 2 2 3 3 2 2 3 3 3 3 2 1 2 2 2 3 3 2 2 2 2 2 2 3 3 4 5 4 4 4 5 6 6 7 8 5 4 4 4
1 1 1 2 2 2 2 2 2 3 3 3 4 3 3 3 3 3 3 2 3 3 2 2 1 2 3 4 4 4 6 6 5 5 5 4 4 4 4 4 4 4 4
1 1 1 2 3 2 1 2 2 3 3 4 3 3 2 2 2 3 4 4 4 3 3 3 2 3 5 6 6 7 8 6 5 4 4 3 3 3 3 3 4 4 4
1 1 1 2 2 2 2 3 2 3 3 3 2 3 2 1 1 2 3 4 4 3 4 4 5 6 6 5 7 8 6 4 4 4 4 4 2 2 2 2 2 3 4
1 2 2 2 3 2 2 2 2 2 2 2 3 3 2 1 1 1 2 3 4 4 4 5 6 7 6 6 5 5 4 4 3 4 3 3 2 2 2 2 2 2 3
2 2 2 3 2 1 1 2 2 1 2 2 3 3 2 2 2 3 3 3 3 3 4 4 4 3 3 3 3 3 3 3 3 4 4 3 3 2 2 2 2 2 3
2 2 2 2 1 1 0 1 2 2 2 2 2 3 2 2 4 3 4 5 5 4 3 4 4 3 3 3 3 3 3 3 3 3 3 3 3 3 3 2 2 3 3
2 2 3 2 2 1 1 1 1 1 2 2 2 2 3 4 4 4 5 6 6 4 3 4 3 3 3 3 3 3 3 3 3 3 3 3 3 3 3 3 2 3 3
3 3 3 2 2 2 2 3 2 2 1 1 2 3 4 5 5 5 4 4 3 2 3 3 4 3 3 4 3 3 3 3 3 3 3 3 3 3 3 3 2 3 3
4 3 2 2 3 3 2 3 3 2 1 1 1 1 3 4 4 5 3 3 3 3 3 3 3 3 3 3 3 3 3 3 3 3 3 3 2 2 3 3 2 3 3
4 3 3 3 3 2 2 2 2 2 2 1 1 0 0 1 2 2 3 2 3 3 3 3 3 3 3 3 3 3 3 3 3 3 3 2 2 3 3 3 3 3 3
4 2 3 3 3 2 2 2 2 2 2 2 1 1 0 2 3 2 2 2 2 3 3 3 3 3 3 3 3 4 5 3 3 3 3 3 3 3 2 2 3 3 3
4 3 2 2 2 2 2 2 2 2 2 3 1 0 2 2 2 2 2 2 2 2 2 2 3 3 3 3 3 3 5 5 4 3 3 3 3 3 3 2 2 2 2
4 4 3 2 2 1 2 2 2 3 2 2 2 1 1 2 2 2 2 2 2 2 2 2 3 3 3 3 3 3 3 4 5 4 4 3 3 3 2 2 2 2 1
4 4 3 2 2 2 2 3 3 2 2 2 2 2 1 1 2 1 2 2 2 2 2 2 2 4 4 3 3 3 3 4 6 4 5 4 4 3 2 2 2 1 1
3 3 3 2 2 2 2 2 2 3 3 2 2 2 2 2 2 2 1 2 3 3 4 3 2 2 3 4 3 3 4 5 5 6 5 4 4 3 3 3 2 1 1
3 3 2 2 2 2 2 2 2 2 2 2 2 2 2 2 3 2 2 2 3 3 3 3 3 4 4 3 3 3 3 4 4 6 5 4 3 3 3 3 3 2 2
Wind_Direction
173 178 185 180 190 199 199 200 236 261 286 308 290 287 273 260 257 263 277 270 263 270 276 270 272 285 291 293 296 285 268 256 267 285 288 278 251 259 231 228 240 229 223
171 175 188 186 189 198 209 207 214 257 267 263 271 279 272 270 276 276 277 281 273 270 276 279 274 277 271 280 285 281 275 274 268 279 270 260 255 240 230 237 256 257 239
174 180 191 198 195 204 218 213 208 226 248 260 261 272 274 276 278 275 278 281 283 285 284 280 277 280 273 273 267 267 270 272 251 259 267 259 264 263 246 254 264 272 270
176 182 186 198 199 209 220 226 220 222 229 249 267 277 277 271 273 287 300 292 287 284 287 280 267 261 262 271 266 265 276 282 278 271 270 270 265 268 257 255 266 265 274
165 176 182 190 189 207 225 244 246 250 247 247 271 281 284 277 292 323 298 289 296 299 299 287 273 262 266 271 275 277 275 270 275 272 269 276 278 302 298 283 281 271 264
160 161 154 169 181 199 232 239 248 258 275 267 268 275 289 299 331 334 309 300 294 287 290 291 274 260 262 260 277 277 273 269 280 285 281 281 281 286 292 288 290 292 281
160 160 156 177 195 221 249 232 251 265 278 274 273 275 267 291 316 302 308 290 281 277 279 282 291 295 275 249 257 257 254 254 252 261 272 279 281 286 286 285 284 278 272
169 180 177 194 208 228 254 250 252 261 260 259 260 264 268 283 302 297 303 276 279 277 276 279 284 284 294 289 269 261 253 258 256 250 250 261 270 276 269 270 269 272 267
186 190 191 215 229 241 254 261 264 259 260 262 257 250 252 267 261 279 303 288 280 287 289 291 283 270 287 295 285 279 271 265 268 266 255 251 252 255 256 266 268 269 274
209 248 239 238 245 253 259 257 263 266 262 265 265 256 243 231 215 228 263 286 286 287 274 264 271 271 287 297 275 278 276 279 284 277 265 257 250 249 245 236 248 262 275
214 239 248 254 253 245 253 252 254 262 269 267 267 258 236 225 210 217 237 272 286 289 281 275 264 244 262 268 263 264 268 283 288 275 263 254 248 240 227 226 229 240 257
312 284 284 285 284 277 256 254 247 248 259 261 261 261 237 214 204 216 231 258 280 289 289 287 292 294 283 270 259 260 270 279 275 274 273 265 257 253 245 238 230 232 241
307 289 289 282 274 275 258 256 258 246 260 271 269 266 264 238 209 219 241 261 275 277 286 296 291 281 284 272 251 252 260 262 266 271 274 271 258 256 258 256 248 243 257
282 273 264 257 258 256 262 270 277 279 285 296 298 288 284 271 289 294 273 276 287 288 300 302 285 269 266 267 268 249 242 250 257 266 274 274 264 250 246 239 242 244 255
283 274 267 265 267 256 282 309 289 298 271 269 290 298 296 292 291 276 269 275 283 293 297 284 275 273 266 261 257 254 244 243 251 257 266 271 262 258 258 257 248 256 255
277 284 285 278 277 266 239 334 350 269 227 223 256 289 301 266 261 260 270 274 275 278 277 276 281 284 287 287 283 271 256 256 254 251 257 258 248 247 253 257 246 243 256
281 284 281 282 277 271 265 263 280 293 277 282 267 262 262 279 286 273 279 285 274 259 260 276 287 291 294 291 290 291 285 280 278 270 265 263 259 252 250 250 243 242 245
272 266 272 277 278 274 272 269 261 260 259 275 261 251 250 258 269 270 281 301 289 259 266 280 287 289 292 295 296 294 293 289 282 280 280 276 272 262 257 253 246 248 248
267 260 258 271 270 270 264 267 274 281 287 270 194 239 254 267 274 267 255 269 285 291 297 297 297 301 298 298 301 295 293 290 288 290 292 291 286 278 268 257 240 233 234
262 249 261 275 273 272 274 286 301 306 307 305 300 63 111 304 281 262 240 255 275 288 291 294 299 302 302 302 303 299 297 298 300 297 294 291 287 280 273 269 258 243 230
285 256 222 255 271 278 283 294 307 314 312 307 312 86 103 276 291 311 305 274 275 285 298 303 302 304 307 312 319 315 308 304 301 295 291 291 288 286 281 265 256 252 245
289 282 254 251 260 265 278 284 290 290 289 299 316 173 218 269 298 305 305 307 296 295 310 318 317 319 321 322 323 323 318 315 308 299 292 286 281 275 271 258 249 250 242
283 289 290 289 271 273 269 270 274 281 290 303 312 305 259 276 288 305 318 323 316 312 316 320 318 319 330 339 339 335 326 318 307 306 306 300 296 292 286 275 265 254 237
281 286 291 302 302 303 297 298 299 304 314 323 321 322 314 295 297 317 322 328 327 324 313 306 311 326 341 346 345 348 346 331 317 306 304 296 293 288 285 277 273 267 241
282 284 288 299 307 303 302 303 317 329 326 321 320 329 332 327 323 333 332 325 317 318 316 311 311 329 341 349 347 346 338 330 328 320 306 296 294 291 289 284 269 236 232
293 299 302 307 308 319 315 315 331 321 310 319 322 325 322 315 323 332 325 326 324 324 322 323 340 353 344 350 355 347 342 333 326 319 303 287 289 294 297 287 279 251 221